Greensboro, NC

8:00 AM EDT on August 27, 2016 (GMT -0400)
Piedmont Triad International

Weather History for KGSO - January, 2014

Change the Weather History Date:

Saturday, January 4, 2014

  Actual Average Record
Temperature  
Mean Temperature 27 °F 39 °F  
Max Temperature 36 °F 48 °F 74 °F (2005)
Min Temperature 17 °F 30 °F 3 °F (1918)
Degree Days  
Heating Degree Days 38 26  
Month to date heating degree days 125 104  
Since 1 July heating degree days 1495 1518  
Cooling Degree Days 0 0  
Month to date cooling degree days 0 0  
Year to date cooling degree days 0 0  
Moisture  
Dew Point 13 °F    
Average Humidity 58    
Maximum Humidity 80    
Minimum Humidity 35    
Precipitation  
Precipitation T in 0.10 in 1.95 in (1906)
Month to date precipitation 0.42 0.38  
Year to date precipitation 0.42 0.38  
Snow  
Snow 0.00 in 0.00 in 1.10 in (1994)
Month to date snowfall 0.0 0.3  
Since 1 July snowfall T 1.2  
Snow Depth 0.00 in    
Sea Level Pressure  
Sea Level Pressure 30.40 in    
Wind  
Wind Speed 4 mph (SSW)    
Max Wind Speed 10 mph    
Max Gust Speed 14 mph    
Visibility 10 miles    
Events Rain    
T = Trace of Precipitation, MM = Missing Value Source: NWS Daily Summary

Daily Weather History Graph

Daily Weather History Graph

Search for Another Location

Airport or City:

Trip Planner

Search our weather history database for the weather conditions in past years. The results will help you decide how hot, cold, wet, or windy it might be!

Date:

Astronomy

Jan. 04, 2014 Rise Set
Actual Time 7:31 AM EST 5:18 PM EST
Civil Twilight 7:02 AM EST 5:47 PM EST
Nautical Twilight 6:30 AM EST 6:19 PM EST
Astronomical Twilight 5:59 AM EST 6:50 PM EST
Moon 9:43 AM EST (1/4) 9:28 PM EST (1/4)
Length of Visible Light 10h 44m
Length of Day
9h 47m
Waxing Crescent, 15% of the Moon is Illuminated
Jan 4
Waxing Crescent
Jan 7
First Quarter
Jan 15
Full
Jan 24
Last Quarter
Jan 30
New

Hourly Weather History & Observations

Time (EST) Temp. Windchill Dew Point Humidity Pressure Visibility Wind Dir Wind Speed Gust Speed Precip Events Conditions
12:54 AM 19.9 °F - 9.0 °F 62% 30.46 in 10.0 mi Calm Calm - N/A   Clear
1:54 AM 21.0 °F - 8.1 °F 57% 30.46 in 10.0 mi Calm Calm - N/A   Clear
2:54 AM 19.9 °F - 10.0 °F 65% 30.47 in 10.0 mi Calm Calm - N/A   Clear
3:54 AM 19.0 °F - 10.9 °F 71% 30.47 in 10.0 mi Calm Calm - N/A   Clear
4:54 AM 18.0 °F - 10.0 °F 71% 30.47 in 10.0 mi Calm Calm - N/A   Clear
5:54 AM 17.1 °F 11.7 °F 12.0 °F 81% 30.48 in 10.0 mi ESE 3.5 mph - N/A   Clear
6:54 AM 19.0 °F - 8.1 °F 62% 30.48 in 10.0 mi Calm Calm - N/A   Clear
7:54 AM 19.9 °F - 10.0 °F 65% 30.49 in 10.0 mi Calm Calm - N/A   Clear
8:54 AM 24.1 °F - 10.9 °F 57% 30.48 in 10.0 mi Calm Calm - N/A   Partly Cloudy
9:54 AM 27.0 °F 19.5 °F 10.9 °F 51% 30.48 in 10.0 mi South 6.9 mph - N/A   Partly Cloudy
10:54 AM 30.0 °F 21.7 °F 9.0 °F 41% 30.47 in 10.0 mi SSW 9.2 mph - N/A   Partly Cloudy
11:54 AM 33.1 °F 24.9 °F 10.0 °F 38% 30.44 in 10.0 mi South 10.4 mph - N/A   Scattered Clouds
12:13 PM 33.8 °F 30.8 °F 8.6 °F 35% 30.39 in 10.0 mi SW 3.5 mph - N/A   Mostly Cloudy
12:54 PM 34.0 °F 29.8 °F 9.0 °F 35% 30.40 in 10.0 mi SW 4.6 mph - N/A   Mostly Cloudy
1:40 PM 35.6 °F 30.7 °F 10.4 °F 35% 30.35 in 10.0 mi South 5.8 mph - N/A   Mostly Cloudy
1:54 PM 35.1 °F 28.6 °F 10.9 °F 37% 30.38 in 10.0 mi South 8.1 mph - N/A   Mostly Cloudy
2:38 PM 33.8 °F 29.6 °F 12.2 °F 41% 30.35 in 10.0 mi SSW 4.6 mph - N/A   Mostly Cloudy
2:54 PM 34.0 °F 29.8 °F 10.9 °F 38% 30.38 in 10.0 mi SW 4.6 mph - N/A   Overcast
3:54 PM 34.0 °F 29.8 °F 10.9 °F 38% 30.38 in 10.0 mi South 4.6 mph - N/A   Overcast
4:54 PM 34.0 °F 28.0 °F 12.0 °F 40% 30.37 in 10.0 mi South 6.9 mph - N/A   Overcast
5:54 PM 33.1 °F 28.7 °F 12.9 °F 43% 30.36 in 10.0 mi South 4.6 mph - N/A   Overcast
6:54 PM 33.1 °F 28.7 °F 15.1 °F 48% 30.36 in 10.0 mi SSW 4.6 mph - N/A   Overcast
7:54 PM 33.1 °F 27.7 °F 17.1 °F 52% 30.35 in 10.0 mi South 5.8 mph - N/A   Overcast
8:33 PM 33.8 °F 27.7 °F 17.6 °F 52% 30.32 in 10.0 mi South 6.9 mph - N/A   Overcast
8:54 PM 33.1 °F 26.9 °F 19.9 °F 59% 30.33 in 10.0 mi South 6.9 mph - N/A   Overcast
9:54 PM 33.1 °F - 19.9 °F 59% 30.31 in 10.0 mi Calm Calm - N/A   Overcast
10:08 PM 33.8 °F 30.8 °F 19.4 °F 56% 30.28 in 10.0 mi SSW 3.5 mph - 0.00 in Rain Light Rain
10:54 PM 32.0 °F 28.7 °F 24.1 °F 73% 30.30 in 10.0 mi WSW 3.5 mph - 0.00 in   Overcast
11:54 PM 32.0 °F 28.7 °F 27.0 °F 82% 30.27 in 10.0 mi West 3.5 mph - 0.00 in   Overcast